Regional Weather Roundup
Issued by NWS Mt. Holly, NJ

Home | Current Version | Previous Version | Text Only | Print | Product List | Glossary On
Versions: 1 2 3 4 5 6 7 8 9 10 11 12 13 14 15 16 17 18 19 20 21 22 23 24 25 26 27 28 29 30 31 32 33 34 35 36 37 38 39 40 41 42 43 44 45 46 47 48 49 50
000
ASUS41 KPHI 270310
RWRPHI

REGIONAL WEATHER ROUNDUP
NATIONAL WEATHER SERVICE MOUNT HOLLY NJ
1000 PM EST MON JAN 26 2015

NOTE:  "FAIR" INDICATES FEW OR NO CLOUDS BELOW 12,000 FEET WITH NO
SIGNIFICANT WEATHER AND/OR OBSTRUCTIONS TO VISIBILITY.

 * = STATION DOES NOT REPORT PRECIPITATION (E.G. RAIN, SNOW, ETC.)
        OR FOG.

NJZ015>026-270400-
SOUTHERN NEW JERSEY

CITY           SKY/WX    TMP DP  RH WIND       PRES   REMARKS
POMONA         CLOUDY    31  27  85 N20G30    29.63F WCI  19
RIO GRANDE*    CLOUDY   N/A N/A N/A NE21      29.59F
MILLVILLE      CLOUDY    30  25  81 NE18G28   29.66F WCI  18
WRIGHTSTOWN    LGT SNOW  27  25  93 N18G28    29.68F FOG     WCI  13
MOUNT HOLLY    CLOUDY    27  22  81 NE16G23   29.71F WCI  15
TRENTON        FLURRIES  27  20  75 NE16G25   29.72F WCI  15

$$
NJZ001>014-270400-
NORTHERN NEW JERSEY

CITY           SKY/WX    TMP DP  RH WIND       PRES   REMARKS
SUSSEX         CLOUDY    21  14  74 NE9       29.80F WCI  11
ANDOVER*         N/A     19  14  81 NE8G18    29.79F WCI   9
MORRISTOWN     CLOUDY    25  19  80 NE17G32   29.79F WCI  11
NEWARK         LGT SNOW  25  21  85 N21G30    29.76F FOG     WCI  11
TETERBORO      LGT SNOW  25  19  80 N16       29.77F BLWGSNOWWCI  12
CALDWELL       CLOUDY    23  16  74 N8        29.79F WCI  14
SOMERVILLE     CLOUDY    27  18  69 NE10G26   29.75F WCI  17
ALLAIRE*       CLOUDY    28  21  74 N21G28    29.69F WCI  15
TOMS RIVER*    CLOUDY    28  25  86 NE21G29   29.68F WCI  15

$$
PAZ043-044-047-054-055-060>062-066>071-270400-
EASTERN PENNSYLVANIA

CITY           SKY/WX    TMP DP  RH WIND       PRES   REMARKS
PHILADELPHIA   LGT SNOW  29  22  75 NE24G31   29.73S WCI  15
NORTH PHILA    LGT SNOW  28  21  75 NE18      29.74F WCI  15
BLUE BELL      CLOUDY    28  23  80 N9G18     29.72F WCI  20
DOYLESTOWN     FLURRIES  25  21  85 NE16G24   29.73F WCI  12
POTTSTOWN      CLOUDY    24  18  77 NE9G18    29.75F WCI  14
LANCASTER      CLOUDY    24  18  77 NE12      29.76S WCI  13
COATESVILLE    PTCLDY    25  23  93 NE13G21   29.71F WCI  13
READING        CLOUDY    24  17  74 NE9G23    29.76F WCI  14
ALLENTOWN      CLOUDY    24  17  74 NE17G24   29.77F WCI  11
MOUNT POCONO   CLOUDY    20  15  81 E18G29    29.70F WCI   5
HAZLETON       CLOUDY    25  19  80 NE7       29.74S WCI  17
WILKES BARRE   CLOUDY    23  15  71 NE10      29.78F WCI  12

$$
DEZALL-MDZ008-012-015-019-020-270400-
DELAWARE AND EASTERN MARYLAND

CITY           SKY/WX    TMP DP  RH WIND       PRES   REMARKS
WILMINGTON     CLOUDY    29  22  75 NE21      29.72F WCI  16
DOVER          CLOUDY    29  29  99 N15G22    29.67F WCI  18
GEORGETOWN     CLOUDY    32  28  85 N15G23    29.64S WCI  22
EASTON         LGT SNOW  31  31  99 N12       29.73S WCI  22
PATUXENT       CLOUDY    32  27  81 N17       29.69S WCI  21
OCEAN CITY     MIX PCPN  36  34  92 N20G35    29.59S WCI  25
WALLOPS ISLAND LGT RAIN  35  34  96 N15G23    29.59R WCI  25
CAMBRIDGE      CLOUDY    32  28  86 CALM      29.67S
SALISBURY      CLOUDY    35  30  82 N13G22    29.63R WCI  26

$$
PAZ001-021-NYZ056-072-MDZ011-DCZ001-270400-
OTHER NEARBY LOCATIONS

CITY           SKY/WX    TMP DP  RH WIND       PRES   REMARKS
HARRISBURG     LGT SNOW  24  21  88 NW8       29.79S FOG     WCI  15
STATE COLLEGE  LGT SNOW  22  20  93 N3        29.79S
WILLIAMSPORT   LGT SNOW  23  20  88 W6        29.83F VSB 1   WCI  16
BINGHAMTON     CLOUDY    16  14  92 NE7       29.78F WCI   6
NEW YORK CITY  LGT SNOW  26  20  77 NE13G26   29.77F VSB 1   WCI  15
BALTIMORE      LGT SNOW  28  25  86 NW8       29.74S WCI  20
WASHINGTON DC  LGT SNOW  30  23  74 NW17      29.77S WCI  18

$$



USA.gov is the U.S. government's official web portal to all federal, state and local government web resources and services.